Location: Fort Wayne
(41.1310°N, 85.1290°W)
Time: 17:29:54
(UTC-05:00)

Meteor 2-10 Rocket - Visible Passes

Search period start: 26 January 2015 00:00
Search period end: 05 February 2015 00:00
Orbit: 734 x 886 km, 81.2° (Epoch: 25 January)

Date Brightness Start Highest point End Pass type
(mag) Time Alt. Az. Time Alt. Az. Time Alt. Az.
30 Jan 5.6 20:11:21 10° N 20:12:12 15° N 20:12:12 15° N visible
31 Jan 5.1 19:47:23 10° N 19:49:12 20° NNE 19:49:12 20° NNE visible
31 Jan 6.2 21:29:36 10° NNW 21:30:25 14° NW 21:30:25 14° NW visible
01 Feb 4.8 19:23:33 10° NNE 19:26:28 22° NE 19:26:28 22° NE visible
01 Feb 5.3 21:05:05 10° NNW 21:07:43 27° NW 21:07:43 27° NW visible
02 Feb 4.9 18:59:55 10° NNE 19:03:25 18° ENE 19:04:13 18° ENE visible
02 Feb 4.1 20:40:43 10° NNW 20:45:31 56° WNW 20:45:31 56° WNW visible
03 Feb 5.2 18:36:42 10° NE 18:38:59 13° ENE 18:41:35 10° E visible
03 Feb 3.6 20:16:26 10° NNW 20:21:47 81° W 20:24:46 28° S visible
04 Feb 3.5 19:52:15 10° N 19:57:37 73° E 20:03:12 10° SSE visible
04 Feb 6.4 21:36:31 10° WNW 21:39:11 13° W 21:41:35 10° WSW visible
